[[{"header":{"parameterUnit":"m.s-1","parameterCategory":1,"la1":30.2991,"la2":30.254,"lo1":-89.0895,"lo2":-89.0444,"dy":0.0017,"dx":0.0017,"nx":28,"ny":28,"refTime":"2024-03-21T09:00:00:Z","depth":0,"parameterNumber":2,"parameterNumberName":"U-component_of_WINDS"},"data":[0,0,0,0,0,0,0,0,0,0,0,0,0,0,0,0,0,0,0,0,0,0,0,0,0,0,0,0,0,0,0,0,0,0,0,0,0,0,0,0,0,0,0,0,0,0,0,0,0,0,0,0,0,0,0,0,0,0,-5.5446,-5.5448,0,-5.5653,-5.5655,-5.5658,-5.5682,-5.568,-5.5678,-5.5676,-5.5874,-5.5881,-5.5888,0,0,0,0,0,0,0,0,0,0,0,0,0,-5.5059,-5.5066,-5.5446,-5.5449,-5.5451,-5.5653,-5.5656,-5.5658,-5.5682,-5.568,-5.5677,-5.5675,-5.5872,-5.588,-5.5888,0,0,0,0,0,0,0,0,0,0,0,0,0,-5.5243,-5.5069,-5.5445,-5.5488,-5.5494,-5.5652,-5.5656,-5.5659,-5.5683,-5.568,-5.5677,-5.5674,-5.5869,-5.5879,-5.589,-5.6016,0,0,-5.5922,-5.5927,0,0,0,0,0,0,0,0,-5.5232,-5.5257,-5.5479,-5.5485,-5.5492,-5.5639,-5.5592,-5.5778,-5.5684,-5.5611,-5.5676,-5.5673,-5.5797,-5.5814,-5.5859,-5.6025,-5.6034,-5.5923,-5.593,-5.5934,-5.5937,0,0,0,0,0,0,0,-5.5219,-5.5248,-5.5527,-5.5482,-5.549,-5.5492,-5.5515,-5.5627,-5.5718,-5.5617,-5.5619,-5.5644,-5.58,-5.5848,-5.5863,-5.6037,-5.5923,-5.5933,-5.5939,-5.5943,-5.6317,-5.6321,0,0,0,0,0,0,-5.5201,-5.5237,-5.5521,-5.5534,-5.5353,-5.5502,-5.5527,-5.5595,-5.5717,-5.5733,-5.5646,-5.5644,-5.5831,-5.5851,-5.587,-5.6026,-5.5934,-5.5944,-5.595,-5.6314,-5.6318,-5.6322,0,0,0,0,0,0,-5.5192,-5.5226,-5.5512,-5.5386,-5.5423,-5.5512,-5.5587,-5.56,-5.5649,-5.5739,-5.5754,-5.568,-5.583,-5.5855,-5.5981,-5.6033,-5.5949,-5.5959,-5.631,-5.6315,-5.632,-5.6338,0,0,0,0,0,0,-5.5181,-5.5223,-5.5274,-5.5388,-5.543,-5.5623,-5.5591,-5.5606,-5.5669,-5.5668,-5.5775,-5.5789,-5.5829,-5.5965,-5.5991,-5.6046,-5.5967,-5.6305,-5.6312,-5.6318,-5.6333,-5.6343,-5.6352,0,0,0,0,0,-5.5167,-5.5268,-5.5277,-5.5311,-5.5497,-5.5626,-5.565,-5.5698,-5.5673,-5.5723,-5.5782,-5.5786,-5.6024,-5.5977,-5.6007,-5.6066,-5.6302,-5.631,-5.6318,-5.6329,-5.6341,-5.6352,0,0,0,0,0,0,-5.5152,-5.5283,-5.5294,-5.5435,-5.552,-5.563,-5.5695,-5.571,-5.5799,-5.5794,-5.5846,-5.587,-5.5993,-5.6043,-5.5988,-5.6195,-5.616,-5.6174,-5.6158,-5.6171,-5.618,-5.6164,-5.5976,0,0,0,0,0,-5.5167,-5.5265,-5.5372,-5.5486,-5.5529,-5.5605,-5.5663,-5.5694,-5.5781,-5.5815,-5.5883,-5.5964,-5.6058,-5.6117,-5.6208,-5.6342,-5.6364,-5.6397,-5.6407,-5.6414,-5.6425,-5.6499,-5.6514,-5.6348,-5.6348,-5.6348,0,0,-5.5194,-5.5278,-5.5336,-5.5485,-5.5554,-5.5651,-5.5634,-5.5737,-5.5808,-5.5829,-5.5953,-5.6006,-5.61,-5.623,-5.6291,-5.6275,-5.6477,-5.6424,-5.643,-5.6436,-5.6508,-5.6524,-5.6538,-5.6353,-5.6352,-5.6351,0,0,-5.5294,-5.5369,-5.5473,-5.5544,-5.5651,-5.5702,-5.5727,-5.5836,-5.5873,-5.6,-5.6018,-5.6102,-5.6261,-5.6328,-5.6382,-5.6513,-5.6518,-5.654,-5.6588,-5.666,-5.6673,-5.6684,-5.6729,-5.6744,-5.6551,-5.6551,-5.6551,0,-5.5314,-5.5465,-5.5522,-5.5626,-5.569,-5.5721,-5.5824,-5.5889,-5.6017,-5.6059,-5.6042,-5.6245,-5.631,-5.6456,-5.6489,-5.6533,-5.656,-5.6526,-5.6667,-5.6679,-5.6691,-5.6734,-5.6751,-5.6553,-5.6553,-5.6553,-5.6553,0,-5.5483,-5.5588,-5.5658,-5.5788,-5.586,-5.5963,-5.6032,-5.6098,-5.6124,-5.6175,-5.6302,-5.6383,-5.6491,-5.6529,-5.6552,-5.6678,-5.6666,-5.6657,-5.6622,-5.6708,-5.6749,-5.6766,-5.6556,-5.6555,-5.6555,-5.6554,0,0,-5.5574,-5.574,-5.5764,-5.5824,-5.5946,-5.6026,-5.613,-5.6241,-5.6295,-5.6384,-5.647,-5.6607,-5.6601,-5.6663,-5.6695,-5.6758,-5.6854,-5.6742,-5.6745,-5.6758,-5.6996,-5.7,-5.7018,-5.6861,-5.6864,-5.6867,-5.6988,0,-5.5687,-5.5878,-5.5934,-5.6092,-5.6188,-5.622,-5.631,-5.6393,-5.6445,-5.6531,-5.6586,-5.6682,-5.6668,-5.6706,-5.677,-5.6829,-5.6902,-5.6821,-5.6937,-5.694,-5.691,-5.704,-5.7044,-5.7153,-5.7004,-5.7007,-5.7009,0,-5.5843,-5.5941,-5.611,-5.6223,-5.6265,-5.6346,-5.6452,-5.6536,-5.663,-5.6663,-5.6735,-5.6762,-5.6868,-5.6831,-5.6976,-5.692,-5.697,-5.7007,-5.7012,-5.7022,-5.6977,-5.705,-5.719,-5.7205,-5.7035,-5.7033,-5.7031,0,-5.589,-5.6064,-5.6189,-5.6239,-5.6374,-5.6429,-5.6487,-5.6579,-5.6643,-5.6735,-5.6776,-5.6878,-5.6933,-5.7009,-5.7062,-5.703,-5.7202,-5.7169,-5.7229,-5.7227,-5.726,-5.7256,-5.7407,-5.7298,-5.7298,-5.7297,-5.7297,0,-5.6008,-5.611,-5.6212,-5.6288,-5.6403,-5.6466,-5.6576,-5.6634,-5.6716,-5.6801,-5.6835,-5.6913,-5.698,-5.7066,-5.7108,-5.722,-5.7245,-5.7272,-5.7281,-5.7268,-5.7264,-5.7299,-5.7291,-5.7302,-5.7301,-5.73,-5.7299,0,-5.6079,-5.6152,-5.6289,-5.6408,-5.644,-5.6519,-5.6618,-5.6691,-5.6747,-5.6854,-5.6882,-5.6967,-5.7071,-5.7133,-5.7262,-5.729,-5.7414,-5.7421,-5.7384,-5.7387,-5.7443,-5.7436,-5.7618,-5.7644,-5.7521,-5.7522,-5.7523,0,-5.6147,-5.6227,-5.6357,-5.6419,-5.6479,-5.6578,-5.6645,-5.671,-5.6778,-5.6893,-5.6952,-5.7059,-5.7148,-5.7312,-5.7381,-5.7481,-5.7489,-5.7546,-5.7503,-5.7487,-5.7487,-5.748,-5.7487,-5.7552,-5.7553,-5.7554,-5.7554,0,-5.6261,-5.6295,-5.6393,-5.6504,-5.6585,-5.6674,-5.6763,-5.6811,-5.689,-5.6964,-5.7074,-5.7143,-5.7279,-5.7384,-5.749,-5.7545,-5.7562,-5.7569,-5.7587,-5.7572,-5.7546,-5.7559,-5.74,-5.7563,-5.7562,-5.7561,-5.7561,-5.756,-5.6331,-5.6404,-5.6508,-5.6616,-5.6691,-5.6774,-5.6849,-5.6917,-5.7011,-5.713,-5.7162,-5.7276,-5.7368,-5.7514,-5.7572,-5.766,-5.765,-5.7677,-5.7683,-5.7688,-5.7689,-5.7536,-5.7679,-5.7679,-5.7679,-5.7679,-5.7679,0,-5.6444,-5.6514,-5.6614,-5.674,-5.6825,-5.6841,-5.6941,-5.7009,-5.7111,-5.7198,-5.7287,-5.7413,-5.7516,-5.7596,-5.7701,-5.7755,-5.7766,-5.778,-5.7775,-5.7787,-5.7693,-5.7665,-5.777,-5.777,-5.777,-5.777,-5.777,-5.777,-5.6513,-5.6638,-5.6684,-5.6845,-5.6913,-5.703,-5.7085,-5.7161,-5.7231,-5.7372,-5.746,-5.7514,-5.7598,-5.771,-5.7804,-5.7825,-5.786,-5.7873,-5.7895,-5.7804,-5.7794,-5.7784,-5.7758,-5.7881,-5.7882,-5.7982,-5.7983,-5.7983]},{"header":{"parameterUnit":"m.s-1","parameterCategory":1,"la1":30.2991,"la2":30.254,"lo1":-89.0895,"lo2":-89.0444,"dy":0.0017,"dx":0.0017,"nx":28,"ny":28,"refTime":"2024-03-21T09:00:00:Z","depth":0,"parameterNumber":3,"parameterNumberName":"V-component_of_WINDS"},"data":[0,0,0,0,0,0,0,0,0,0,0,0,0,0,0,0,0,0,0,0,0,0,0,0,0,0,0,0,0,0,0,0,0,0,0,0,0,0,0,0,0,0,0,0,0,0,0,0,0,0,0,0,0,0,0,0,0,0,2.6712,2.6711,0,2.6601,2.66,2.6598,2.6459,2.6457,2.6455,2.6453,2.6343,2.6342,2.6341,0,0,0,0,0,0,0,0,0,0,0,0,0,2.681,2.6809,2.6713,2.6711,2.671,2.6601,2.6599,2.6598,2.646,2.6457,2.6454,2.6452,2.6343,2.6342,2.6341,0,0,0,0,0,0,0,0,0,0,0,0,0,2.674,2.6809,2.6713,2.6627,2.6619,2.6601,2.6599,2.6598,2.646,2.6457,2.6454,2.645,2.6343,2.6342,2.6341,2.6399,0,0,2.6337,2.6336,0,0,0,0,0,0,0,0,2.6745,2.6737,2.6641,2.6633,2.6623,2.654,2.6593,2.6531,2.6461,2.6521,2.6453,2.6449,2.6411,2.6404,2.6391,2.6394,2.6389,2.6337,2.6336,2.6335,2.6335,0,0,0,0,0,0,0,2.675,2.6741,2.6668,2.664,2.6629,2.6596,2.6583,2.6581,2.6486,2.6515,2.6505,2.6493,2.6406,2.6392,2.6387,2.6388,2.6337,2.6336,2.6335,2.6334,2.6435,2.6438,0,0,0,0,0,0,2.6767,2.6746,2.6672,2.6665,2.6677,2.6597,2.6582,2.6571,2.6486,2.647,2.6496,2.6487,2.6396,2.6389,2.6383,2.6446,2.6335,2.6334,2.6333,2.6431,2.6435,2.6439,0,0,0,0,0,0,2.6769,2.6761,2.6676,2.6703,2.6689,2.6599,2.6587,2.657,2.6556,2.6471,2.6454,2.65,2.6393,2.6385,2.6396,2.644,2.6333,2.6332,2.6427,2.6433,2.6437,2.6574,0,0,0,0,0,0,2.6773,2.6763,2.6783,2.6704,2.6688,2.6691,2.659,2.657,2.6554,2.6541,2.647,2.6455,2.639,2.6399,2.6395,2.6437,2.6331,2.6423,2.643,2.6436,2.6565,2.6583,2.6598,0,0,0,0,0,2.6777,2.6827,2.6785,2.6777,2.6712,2.6693,2.6685,2.6608,2.6558,2.6578,2.6524,2.6457,2.6436,2.6401,2.6396,2.6438,2.642,2.6428,2.6435,2.6557,2.6579,2.6598,0,0,0,0,0,0,2.6915,2.6815,2.6767,2.6793,2.6753,2.667,2.6693,2.6633,2.6607,2.6596,2.6503,2.6489,2.6512,2.6476,2.6438,2.6491,2.6418,2.6425,2.6513,2.6533,2.655,2.6558,2.633,0,0,0,0,0,2.6948,2.694,2.6854,2.6885,2.6867,2.6784,2.6773,2.6718,2.6673,2.6655,2.6601,2.6562,2.6546,2.6537,2.6518,2.6559,2.6542,2.6585,2.6602,2.6616,2.6624,2.6644,2.6662,2.6465,2.6465,2.6464,0,0,2.7017,2.6962,2.6963,2.6912,2.6874,2.6869,2.6771,2.677,2.6766,2.6655,2.6662,2.6622,2.6572,2.6598,2.6607,2.6569,2.6675,2.6626,2.6638,2.6638,2.6654,2.6672,2.6689,2.647,2.6469,2.6468,0,0,2.714,2.7097,2.7119,2.7083,2.7026,2.6971,2.6977,2.6903,2.6871,2.6877,2.6794,2.6789,2.6764,2.6731,2.6712,2.6824,2.6762,2.6821,2.6909,2.6929,2.6945,2.6958,2.6999,2.7015,2.6828,2.6829,2.6829,0,2.7234,2.7222,2.7138,2.7142,2.7123,2.7021,2.7043,2.7013,2.6954,2.6944,2.6902,2.6868,2.6827,2.6845,2.6873,2.686,2.6864,2.6829,2.6949,2.6962,2.6973,2.7011,2.7027,2.6836,2.6835,2.6835,2.6834,0,2.734,2.7334,2.7358,2.7303,2.7286,2.73,2.7219,2.7212,2.7159,2.7109,2.7117,2.7064,2.7032,2.7032,2.698,2.7044,2.7022,2.6966,2.6891,2.7001,2.7035,2.7049,2.6847,2.6844,2.6842,2.684,0,0,2.7547,2.7445,2.7455,2.7429,2.736,2.7354,2.7364,2.7332,2.7329,2.7292,2.7299,2.7281,2.7228,2.7206,2.715,2.7168,2.7262,2.7109,2.7106,2.714,2.733,2.7373,2.7391,2.722,2.7222,2.7224,2.7334,0,2.7658,2.7667,2.7592,2.7622,2.7616,2.752,2.7528,2.7488,2.7442,2.7431,2.738,2.7369,2.73,2.7286,2.73,2.7247,2.7299,2.7238,2.7227,2.7227,2.7243,2.7408,2.7454,2.756,2.7347,2.7349,2.7351,0,2.7788,2.7758,2.7787,2.7717,2.7712,2.7721,2.7686,2.7677,2.763,2.7595,2.7571,2.7506,2.7512,2.7441,2.7449,2.741,2.7401,2.7375,2.7377,2.7373,2.7296,2.741,2.7591,2.7608,2.7371,2.7369,2.7368,0,2.7937,2.7904,2.7917,2.7897,2.7816,2.7825,2.7792,2.7741,2.7727,2.7698,2.7688,2.766,2.7646,2.7626,2.7556,2.7511,2.7573,2.7496,2.7546,2.7548,2.7563,2.7563,2.7747,2.7557,2.7557,2.7557,2.7556,0,2.8069,2.8091,2.7982,2.7991,2.8013,2.7928,2.7953,2.791,2.7866,2.7866,2.7782,2.7784,2.769,2.7683,2.7628,2.7644,2.7638,2.7611,2.7596,2.7618,2.7622,2.7611,2.7603,2.7561,2.756,2.7559,2.7558,0,2.8239,2.8167,2.8175,2.8098,2.8079,2.8099,2.8033,2.8039,2.7987,2.7988,2.7983,2.7903,2.7889,2.7817,2.7787,2.7751,2.7786,2.7756,2.7802,2.7792,2.7846,2.7842,2.8029,2.805,2.7848,2.785,2.7851,0,2.8328,2.8342,2.8267,2.826,2.823,2.822,2.8205,2.8122,2.8111,2.8059,2.8071,2.805,2.8029,2.8012,2.7952,2.7929,2.7899,2.7966,2.7895,2.7917,2.7901,2.7901,2.7902,2.7981,2.7984,2.7986,2.7988,0,2.8494,2.8458,2.8439,2.8409,2.8393,2.8366,2.8333,2.8333,2.8241,2.8232,2.8217,2.82,2.8169,2.8151,2.8117,2.8084,2.8022,2.8011,2.8021,2.8044,2.807,2.8058,2.7844,2.8007,2.8005,2.8004,2.8003,2.8002,2.8626,2.8635,2.8583,2.8566,2.8532,2.8504,2.8505,2.8454,2.8439,2.8407,2.8359,2.835,2.8304,2.8253,2.8225,2.8218,2.8182,2.8197,2.8201,2.8206,2.8218,2.8071,2.8212,2.8211,2.8211,2.821,2.821,0,2.8789,2.8751,2.8735,2.8692,2.8679,2.862,2.8581,2.8574,2.8567,2.8529,2.8509,2.8493,2.8474,2.8413,2.8389,2.8395,2.8366,2.8391,2.839,2.8384,2.8251,2.8245,2.8415,2.8415,2.8415,2.8415,2.8415,2.8415,2.8872,2.8884,2.8842,2.8838,2.8799,2.8789,2.8772,2.8746,2.8715,2.87,2.8683,2.8643,2.8596,2.8568,2.8549,2.8531,2.8527,2.8562,2.8536,2.8413,2.8393,2.8375,2.8368,2.8562,2.8562,2.8669,2.867,2.8671]}]]